Regional Weather Roundup
Issued by NWS State College, PA

Home | Current Version | Previous Version | Graphics & Text | Print | Product List | Glossary Off
Versions: 1 2 3 4 5 6 7 8 9 10 11 12 13 14 15 16 17 18 19 20 21 22 23 24 25 26 27 28 29 30 31 32 33 34 35 36 37 38 39 40 41 42 43 44 45 46 47 48 49 50

000
ASUS41 KCTP 021710
RWRCTP

REGIONAL WEATHER ROUNDUP
NATIONAL WEATHER SERVICE STATE COLLEGE PA
100 PM EDT SUN AUG 02 2015

Note: "fair" indicates few or no clouds below 12,000 feet with no
significant weather and/or obstructions to visibility.

* = STATION THAT DOES NOT REPORT PRECIPITATION /E.G. RAIN...SNOW...ETC/
    THUNDER OR FOG.

PAZ002>004-007>009-013>016-020>023-029>032-021800-
WESTERN PENNSYLVANIA

CITY           SKY/WX    TMP DP  RH WIND       PRES   REMARKS
ERIE           SUNNY     84  53  34 SW8       29.89S
MEADVILLE      SUNNY     82  54  37 SW10      29.94S
FRANKLIN*      SUNNY     79  55  44 W6        29.96S
NEW CASTLE     FAIR      85  62  45 W6        29.94F
BEAVER COUNTY  NOT AVBL
BUTLER*        MOSUNNY   82  61  47 W7        29.97S
PITTSBURGH INT MOSUNNY   82  61  48 SW12      29.95F
PITTSBURGH     PTSUNNY   81  58  45 SW14G21   29.95F
INDIANA*       MOSUNNY   79  64  61 W13       29.99F
LATROBE        SUNNY     81  59  47 SW14      29.98F
WASHINGTON CO* NOT AVBL
$$

PAZ004>006-010>012-017>019-024>028-033>037-041-042-045-046-049>053-021800-
CENTRAL PENNSYLVANIA

CITY           SKY/WX    TMP DP  RH WIND       PRES   REMARKS
BRADFORD       SUNNY     76  49  38 W12G17    29.96S
DUBOIS         PTSUNNY   76  58  53 MISG      29.95F
CLEARFIELD     MOSUNNY   79  59  50 SW9G20    29.96F
JOHNSTOWN      MOSUNNY   75  57  53 SW9G21    30.00F
ALTOONA        PTSUNNY   80  59  48 SW9       29.98F
STATE COLLEGE  PTSUNNY   75  61  60 SW7       29.95F
WILLIAMSPORT   MOSUNNY   80  60  50 CALM      29.90F
SELINSGROVE    MOSUNNY   82  59  45 VRB5      29.93F
FT INDIANTOWN  MOSUNNY   84  55  37 S6        29.94F
CAPITAL CITY   MOSUNNY   85  56  37 SW8       29.94F
HARRISBURG     PTSUNNY   84  59  42 S6        29.93F
YORK           PTSUNNY   81  60  48 W6        29.96F
$$

PAZ038>040-043-044-047-048-054-055-060>062-067>071-021800-
EASTERN PENNSYLVANIA

CITY           SKY/WX    TMP DP  RH WIND       PRES   REMARKS
SCRANTON       SUNNY     83  53  35 W15       29.93F
MOUNT POCONO   MOSUNNY   76  51  41 SW9G16    29.99F
ALLENTOWN      MOSUNNY   83  58  42 W10       29.94F
QUAKERTOWN*    MOSUNNY   84  55  37 SW3       29.96F
READING        SUNNY     82  59  45 VRB6      29.93F
LANCASTER      MOSUNNY   83  58  42 W10       29.95F
COATESVILLE    MOSUNNY   81  57  44 S3        29.98F
POTTSTOWN      MOSUNNY   83  58  42 NW6       29.96F
BLUE BELL      MOSUNNY   84  55  37 CALM      29.95S
DOYLESTOWN     MOSUNNY   84  53  34 SW9       29.94F
WILLOW GROVE   NOT AVBL
NORTH PHILA    SUNNY     89  47  23 NW9       29.95F
PHILADELPHIA   PTSUNNY   87  52  29 VRB7      29.94F
$$


USA.gov is the U.S. government's official web portal to all federal, state and local government web resources and services.